Weather History for Bryce Canyon, UT

Change the Weather History Date:

Friday, December 16, 2011

  Actual Average Record
Temperature  
Mean Temperature 10 °F -  
Max Temperature 27 °F 38 °F 58 °F (1980)
Min Temperature -6 °F 9 °F -11 °F (2001)
Degree Days  
Heating Degree Days 54    
Moisture  
Dew Point 4 °F    
Average Humidity 88    
Maximum Humidity 96    
Minimum Humidity 69    
Precipitation  
Precipitation 0.00 in - - ()
Sea Level Pressure  
Sea Level Pressure 30.48 in    
Wind  
Wind Speed 6 mph (WNW)    
Max Wind Speed 12 mph    
Max Gust Speed -    
Visibility 10 miles    
Events      
Averages and records for this station are not official NWS values.
T = Trace of Precipitation, MM = Missing Value Source: NWS Daily Summary

Daily Weather History Graph

Daily Weather History Graph

Search for Another Location

Airport:

Trip Planner

Search our weather history database for the weather conditions in past years. The results will help you decide how hot, cold, wet, or windy it might be!

Date:

Astronomy

Dec. 16, 2011 Rise Set
Actual Time 7:37 AM MST 5:11 PM MST
Civil Twilight 7:07 AM MST 5:40 PM MST
Nautical Twilight 6:34 AM MST 6:13 PM MST
Astronomical Twilight 6:02 AM MST 6:45 PM MST
Moon 11:42 PM MST (12/16) 11:30 AM MST (12/16)
Length of Visible Light 10h 32m
Length of Day
9h 34m
Waning Gibbous, 64% of the Moon is Illuminated
Dec 16
Waning Gibbous
Dec 17
Last Quarter
Dec 24
New
Dec 31
First Quarter
Jan 9
Full

Hourly Weather History & Observations

Time (MST) Temp. Windchill Dew Point Humidity Pressure Visibility Wind Dir Wind Speed Gust Speed Precip Events Conditions
12:53 AM -2.0 °F -12.2 °F -4.0 °F 91% 30.38 in 10.0 mi SW 4.6 mph - N/A   Clear
1:53 AM -0.9 °F -8.9 °F -2.9 °F 91% 30.37 in 10.0 mi WNW 3.5 mph - N/A   Partly Cloudy
2:09 AM -0.4 °F -8.3 °F -2.2 °F 92% 30.25 in 10.0 mi WNW 3.5 mph - N/A   Mostly Cloudy
2:32 AM -0.4 °F -12.0 °F -2.2 °F 92% 30.25 in 10.0 mi West 5.8 mph - N/A   Partly Cloudy
2:53 AM -2.0 °F -17.7 °F -4.0 °F 91% 30.38 in 10.0 mi West 9.2 mph - N/A   Clear
3:15 AM -0.4 °F -13.4 °F -2.2 °F 92% 30.24 in 10.0 mi West 6.9 mph - N/A   Partly Cloudy
3:53 AM -0.9 °F -16.4 °F -2.9 °F 91% 30.38 in 10.0 mi West 9.2 mph - N/A   Scattered Clouds
4:05 AM -0.4 °F -14.7 °F -2.2 °F 92% 30.25 in 10.0 mi WNW 8.1 mph - N/A   Mostly Cloudy
5:53 AM -5.1 °F -19.1 °F -7.1 °F 91% 30.49 in 10.0 mi WSW 6.9 mph - N/A   Clear
6:53 AM -5.1 °F -20.4 °F -8.0 °F 87% 30.59 in 10.0 mi West 8.1 mph - N/A   Clear
7:53 AM -6.0 °F -20.1 °F -8.0 °F 91% 30.62 in 10.0 mi West 6.9 mph - N/A   Clear
8:53 AM -0.9 °F -11.0 °F -2.0 °F 95% 30.62 in 10.0 mi WSW 4.6 mph - N/A   Clear
9:53 AM 8.1 °F -0.5 °F 7.0 °F 95% 30.58 in 10.0 mi West 4.6 mph - N/A   Clear
10:53 AM 18.0 °F 9.8 °F 15.1 °F 88% 30.53 in 10.0 mi North 5.8 mph - N/A   Clear
11:53 AM 19.9 °F 14.9 °F 17.1 °F 89% 30.48 in 10.0 mi Variable 3.5 mph - N/A   Clear
12:53 PM 25.0 °F 17.1 °F 18.0 °F 75% 30.46 in 10.0 mi NE 6.9 mph - N/A   Clear
1:53 PM 26.1 °F 17.6 °F 19.9 °F 78% 30.43 in 10.0 mi NE 8.1 mph - N/A   Clear
2:53 PM 27.0 °F 19.5 °F 18.0 °F 69% 30.43 in 10.0 mi NE 6.9 mph - N/A   Clear
3:53 PM 27.0 °F 21.6 °F 18.0 °F 69% 30.45 in 10.0 mi West 4.6 mph - N/A   Clear
4:53 PM 15.1 °F - 12.0 °F 88% 30.56 in 10.0 mi Calm Calm - N/A   Clear
5:53 PM 16.0 °F 2.9 °F 10.9 °F 81% 30.55 in 10.0 mi NE 11.5 mph - N/A   Clear
6:53 PM 8.1 °F - 6.1 °F 92% 30.62 in 10.0 mi Calm Calm - N/A   Clear
7:53 PM 1.0 °F -8.7 °F -0.0 °F 95% 30.71 in 10.0 mi WNW 4.6 mph - N/A   Clear
8:53 PM 3.0 °F -13.3 °F 1.0 °F 91% 30.66 in 10.0 mi West 11.5 mph - N/A   Clear
9:53 PM 3.0 °F -11.5 °F 1.9 °F 95% 30.62 in 10.0 mi West 9.2 mph - N/A   Clear
10:53 PM -0.0 °F -15.3 °F -0.9 °F 96% 30.59 in 10.0 mi WNW 9.2 mph - N/A   Clear
11:53 PM 1.0 °F -14.9 °F -0.9 °F 91% 30.58 in 10.0 mi West 10.4 mph - N/A   Clear